Retour au catalogue

STARLINK-1297

ActifCommunicationsVLEO
NORAD 45395·PAYLOAD·🇺🇸 United States

Lancé Mar 18, 2020 depuis Cape Canaveral Space Force Station

Loading…

Prochains Passages (prochaines 24 heures)

TLE

FraisSource: CelesTrak SupGP

Époque: Sep 14, 2026, 21:18 UTC

1 45395C 20019AM  26257.88798611  .00232670  00000+0  69484-3 0  2578
2 45395  53.0324 272.9769 0007074  34.3649 309.4147 15.91489851    14

Suivez STARLINK-1297 en temps réel avec AllMySat

Download on the App Store